Retour au catalogue

STARLINK-3396

ActifCommunicationsVLEO
NORAD 51129·PAYLOAD·🇺🇸 United States

Lancé Jan 19, 2022 depuis Cape Canaveral Space Force Station

Loading…

Prochains Passages (prochaines 24 heures)

TLE

FraisSource: CelesTrak SupGP

Époque: Sep 15, 2026, 02:25 UTC

1 51129C 22005AB  26258.10118056  .00003387  00000+0  96904-4 0  2582
2 51129  53.1589 162.9115 0001433  90.5198 241.9652 15.35394941    13

Suivez STARLINK-3396 en temps réel avec AllMySat

Download on the App Store